Tracking 21607 objects as of 23-Oct-2020
HD Live streaming from Space Station
objects crossing your sky now

NADEZHDA 7

Track NADEZHDA 7 now!
10-day predictions
NADEZHDA 7 is classified as:


NORAD ID: 27534
Int'l Code: 2002-046A
Perigee: 971.0 km
Apogee: 1,022.9 km
Inclination: 82.9 °
Period: 104.9 minutes
Semi major axis: 7367 km
RCS: 1.9312 m2 (large)
Launch date: September 26, 2002
Source: Commonwealth of Independent States (former USSR) (CIS)
Launch site: PLESETSK MISSILE AND SPACE COMPLEX (PKMTR)
aabbcc
Your satellite tracking list
Your tracking list is empty




NASA's NSSDC Master Catalog

Two Line Element Set (TLE):
1 27534U 02046A   20296.87408260 +.00000044 +00000-0 +32253-4 0  9994
2 27534 082.9371 055.1818 0035166 307.5691 166.3882 13.72725873905477
Source of the keplerian elements: AFSPC